User: anonymous   Login
Location: Unspecified
(0.0000°N, 0.0000°E)
Time: 01:43:27
(UTC+00:00)
Language:

NOSS 2-1 (E) - Orbit

View from above orbital plane
View from above orbital plane
View from above satellite
View from above satellite

Ground track
Ground track

The orbit data is extracted from the following two-line orbital elements,

1 20642U 90050E   17099.83365260 0.00000250  00000-0  65909-4 0    00
2 20642  63.3465  11.2837 0785000  27.5650 332.4350 13.41658983    08
Epoch (UTC): 09 April 2017 20:00:27
Eccentricity: 0.0785000
inclination: 63.3465°
perigee height: 516 km
apogee height: 1690 km
right ascension of ascending node: 11.2837°
argument of perigee: 27.5650°
revolutions per day: 13.41658983
mean anomaly at epoch: 332.4350°
orbit number at epoch: 0

The dashed part of the orbit path shows where the satellite is in the earth's shadow,  

DLR